This is the latest recevied weather packets stored in our database for station/object KQ4OSL. If no packets are shown the sender has not sent any weather packets the latest 10 day(s).
| Time | Temp. | Humidity | Pressure | Rain* | Wind** | Luminosity | Snow |
|---|---|---|---|---|---|---|---|
| 1787950111 | 32.78° C | 56% | 1017.8 hPa | 0 mm | - | 402 W/m² | - |
| 1787949807 | 32.78° C | 62% | 1017.8 hPa | 0 mm | - | 425 W/m² | - |
| 1787949506 | 32.22° C | 61% | 1017.7 hPa | 0 mm | - | 444 W/m² | - |
| 1787949202 | 31.11° C | 63% | 1017.9 hPa | 0 mm | - | 470 W/m² | - |
| 1787948897 | 31.67° C | 64% | 1017.7 hPa | 0 mm | - | 143 W/m² | - |
| 1787948593 | 32.22° C | 62% | 1017.8 hPa | 0 mm | - | 540 W/m² | - |
| 1787948288 | 32.78° C | 59% | 1017.7 hPa | 0 mm | - | 513 W/m² | - |
| 1787947982 | 32.78° C | 58% | 1017.8 hPa | 0 mm | - | 511 W/m² | - |
| 1787947681 | 32.22° C | 60% | 1017.9 hPa | 0 mm | - | 528 W/m² | - |
| 1787947380 | 32.22° C | 62% | 1017.9 hPa | 0 mm | - | 529 W/m² | - |
| 1787947079 | 32.22° C | 62% | 1017.8 hPa | 0 mm | - | 552 W/m² | - |
| 1787946779 | 32.22° C | 61% | 1017.9 hPa | 0 mm | - | 557 W/m² | - |
| 1787946477 | 32.78° C | 61% | 1018 hPa | 0 mm | - | 574 W/m² | - |
| 1787946173 | 32.22° C | 64% | 1018.1 hPa | 0 mm | - | 581 W/m² | - |
| 1787945868 | 32.22° C | 62% | 1018 hPa | 0 mm | - | 600 W/m² | - |
| 1787945564 | 31.67° C | 65% | 1018.1 hPa | 0 mm | - | 622 W/m² | - |
| 1787945263 | 31.11° C | 65% | 1018.2 hPa | 0 mm | - | 647 W/m² | - |
| 1787944963 | 31.11° C | 67% | 1018.1 hPa | 0 mm | - | 146 W/m² | - |
| 1787944661 | 31.67° C | 64% | 1018.2 hPa | 0 mm | - | 443 W/m² | - |
| 1787944357 | 32.22° C | 67% | 1018.2 hPa | 0 mm | - | 679 W/m² | - |
| 1787944052 | 32.22° C | 65% | 1018.5 hPa | 0 mm | - | 690 W/m² | - |
| 1787943747 | 32.78° C | 63% | 1018.5 hPa | 0 mm | - | 687 W/m² | - |
| 1787943442 | 32.22° C | 59% | 1018.7 hPa | 0 mm | - | 685 W/m² | - |
| 1787943138 | 31.67° C | 66% | 1018.7 hPa | 0 mm | - | 686 W/m² | - |
| 1787942832 | 31.67° C | 64% | 1018.8 hPa | 0 mm | - | 688 W/m² | - |
* Rain latest hour (hover to see other rain measurements)
** Current wind speed in m/s (hover to see current wind gust speed)